Showing default

LEMUR 2 KRISH, 64561

Orbit data source: Space-Track

LEMUR 2 KRISH, 64561 is an American payload satellite in SSO that was launched on Mon, 23 Jun 2025 UTC via an FALCON 9 launch vehicle from the Air Force Western Test Range (AFWTR). Payload-class satellites include a variety of spacecraft equipped with specific instruments for various scientific and technological missions. These include communications satellites like Starlink; space stations such as the ISS; scientific satellites like the Hubble; Earth observation satellites from companies like Planet Labs, Umbra, and HawkEye 360; GPS; miniature CubeSats for education and research; and military/defense satellites.

Loading next visibility...
Identifier
64561, 2025-135AK
Orbit
SSO
Country
Flag of USUS
Related business
Manufacturer
Spire/Glasgow
Mission
Operational Commercial Com/MetRO
Bus & Motor
CUBESAT 6U, Unknown motor
Mass
10 kg wet, 10 kg dry
Launch date (UTC)
2025-06-23 (1 year ago)
Launch vehicle
FALCON 9
Launch site
Air Force Western Test Range (AFWTR)
Object type
Payload
Rocket body
Debris
Shape & HBR
Box, 0.1 m
Radar Cross Section
0.080 m², Medium (>0.1 m² and < 1m²)

Expand to show TLE details & history
Last TLE update: 14 hours ago

TLE from 14 hours ago
0 LEMUR 2 KRISH
1 64561U 25135AK  26171.28442340  .00003654  00000-0  32897-3 0  9992
2 64561  97.7753 286.1395 0001618  96.8022 263.3383 14.96233814 54388
Epoch: 2026-06-20T06:49Z
TLE epoch observation values (Epoch: 2026-06-20T06:49:34.181Z)
Latitude
-0.00007°
Longitude
-84.75416°
Altitude
581.724 km
Speed
7.57 km/s
True Right ascension
19h 04m 33s
True Declination
0° 00' 00"
Sunlit
Object was in full shadow at epoch
Visualization orbit readout
Latitude
Unknown
Longitude
Unknown
Altitude
Unknown
Speed
Unknown
Apparent Right ascension
Unknown
Apparent Declination
Unknown
Sunlit
N/A
Visualization observer readout
Local Sidereal Time
07:24:26
Azimuth
Unknown
Elevation
Unknown
Doppler factor
Unknown
Orbital elements
Apogee altitude
576.684 km
Perigee altitude
574.434 km
Semi-major axis
6,953.696 km
Eccentricity
0.00016
Inclination
97.7753°
RAAN
286.1395°
Arg. of periapsis
96.8022°
True anomaly
263.31988°
Mean anomaly
263.3383°
Eccentric anomaly
263.32909°
Mean motion
3.743 °/min
Orbital period
96.18 mins
BSTAR
0.00032897
Loading maneuver chart data...
Computing Atmospheric mass density...
Loading historical data...
Loading historical data...
Loading historical data...
Loading historical data...
Loading historical data...
Loading historical data...
Loading historical data...

Documentation

Showing up to 5 results
|